Weather History for KNYL - April, 2012

Change the Weather History Date:

Monday, April 2, 2012

  Actual Average Record
Temperature  
Mean Temperature 68 °F 70 °F  
Max Temperature 80 °F 83 °F 101 °F (1959)
Min Temperature 56 °F 57 °F 42 °F (1956)
Degree Days  
Heating Degree Days 0 1  
Month to date heating degree days 0 2  
Since 1 July heating degree days 688 675  
Cooling Degree Days 3 6  
Month to date cooling degree days 4 11  
Year to date cooling degree days 105 164  
Growing Degree Days 18 (Base 50)    
Moisture  
Dew Point 14 °F    
Average Humidity 23    
Maximum Humidity 40    
Minimum Humidity 6    
Precipitation  
Precipitation 0.00 in 0.01 in 0.52 in (1999)
Month to date precipitation 0.00 0.02  
Year to date precipitation 0.04 1.11  
Sea Level Pressure  
Sea Level Pressure 29.91 in    
Wind  
Wind Speed 11 mph (North)    
Max Wind Speed 26 mph    
Max Gust Speed 33 mph    
Visibility 10 miles    
Events      
T = Trace of Precipitation, MM = Missing Value Source: NWS Daily Summary

Daily Weather History Graph

Daily Weather History Graph

Search for Another Location

Airport or City:

Trip Planner

Search our weather history database for the weather conditions in past years. The results will help you decide how hot, cold, wet, or windy it might be!

Date:

Astronomy

Apr. 02, 2012 Rise Set
Actual Time 6:24 AM MST 6:59 PM MST
Civil Twilight 5:59 AM MST 7:24 PM MST
Nautical Twilight 5:30 AM MST 7:53 PM MST
Astronomical Twilight 5:00 AM MST 8:23 PM MST
Moon 2:53 PM MST (4/2) 3:25 AM MST (4/2)
Length of Visible Light 13h 24m
Length of Day
12h 35m
Waxing Gibbous, 79% of the Moon is Illuminated
Apr 2
Waxing Gibbous
Apr 6
Full
Apr 13
Last Quarter
Apr 21
New
Apr 29
First Quarter

Hourly Weather History & Observations

Time (MST) Temp. Dew Point Humidity Pressure Visibility Wind Dir Wind Speed Gust Speed Precip Events Conditions
12:55 AM 60.1 °F 36.0 °F 41% 29.90 in 10.0 mi NW 11.5 mph - N/A   Clear
1:00 AM - - N/A% - - North - - N/A   Unknown
1:55 AM 59.0 °F 36.0 °F 42% 29.91 in 10.0 mi WNW 4.6 mph - N/A   Clear
2:55 AM 59.0 °F 33.1 °F 38% 29.91 in 10.0 mi NW 8.1 mph - N/A   Clear
3:55 AM 57.0 °F 30.0 °F 36% 29.91 in 10.0 mi NW 11.5 mph - N/A   Clear
4:15 AM 60.8 °F 21.2 °F 22% 29.91 in 10.0 mi NNW 10.4 mph - N/A   Clear
4:55 AM 63.0 °F 16.0 °F 16% 29.92 in 10.0 mi North 10.4 mph - N/A   Clear
5:55 AM 60.1 °F 16.0 °F 18% 29.93 in 10.0 mi North 6.9 mph - N/A   Clear
6:55 AM 62.1 °F 12.9 °F 15% 29.96 in 10.0 mi North 8.1 mph - N/A   Mostly Cloudy
7:55 AM 62.1 °F 19.9 °F 20% 29.97 in 10.0 mi West 4.6 mph - N/A   Scattered Clouds
8:55 AM 68.0 °F 15.1 °F 13% 29.98 in 10.0 mi North 8.1 mph - N/A   Partly Cloudy
9:55 AM 71.1 °F 8.1 °F 9% 29.98 in 10.0 mi North 17.3 mph 24.2 mph N/A   Partly Cloudy
10:55 AM 73.0 °F 8.1 °F 8% 29.97 in 10.0 mi North 20.7 mph 31.1 mph N/A   Clear
11:55 AM 75.0 °F 8.1 °F 8% 29.95 in 10.0 mi NNE 13.8 mph 23.0 mph N/A   Clear
12:55 PM 75.9 °F 5.0 °F 6% 29.93 in 10.0 mi NNW 15.0 mph 21.9 mph N/A   Partly Cloudy
1:55 PM 77.0 °F 6.1 °F 7% 29.90 in 10.0 mi North 15.0 mph 28.8 mph N/A   Scattered Clouds
2:55 PM 79.0 °F 7.0 °F 6% 29.87 in 10.0 mi NNW 20.7 mph 27.6 mph N/A   Clear
3:55 PM 79.0 °F 6.1 °F 6% 29.85 in 10.0 mi NNW 17.3 mph 23.0 mph N/A   Mostly Cloudy
4:55 PM 79.0 °F 6.1 °F 6% 29.84 in 10.0 mi NW 17.3 mph 21.9 mph N/A   Mostly Cloudy
5:55 PM 75.9 °F 8.1 °F 7% 29.84 in 10.0 mi North 9.2 mph - N/A   Mostly Cloudy
6:55 PM 73.9 °F 12.0 °F 9% 29.85 in 10.0 mi NNE 5.8 mph - N/A   Mostly Cloudy
7:55 PM 71.6 °F 12.2 °F 10% 29.87 in 10.0 mi NE 10.4 mph - N/A   Scattered Clouds
8:55 PM 66.2 °F 12.2 °F 12% 29.89 in 10.0 mi NNE 6.9 mph - N/A   Scattered Clouds
9:55 PM 69.8 °F 8.6 °F 9% 29.90 in 6.0 mi NNE 12.7 mph 19.6 mph N/A   Smoke
10:55 PM 69.1 °F 7.0 °F 9% 29.91 in 10.0 mi North 10.4 mph 19.6 mph N/A   Clear
11:55 PM 66.9 °F 8.1 °F 10% 29.91 in 10.0 mi North 8.1 mph - N/A   Clear